Time,TemperatureF,DewpointF,PressureIn,WindDirection,WindDirectionDegrees,WindSpeedMPH,WindSpeedGustMPH,Humidity,HourlyPrecipIn,Conditions,Clouds,dailyrainin,SoftwareType,DateUTC
2013-04-22 00:02:00,45.0,29.0,-100.00,WNW,300,8.0,12.0,52,-99.99,,,-99.99,,2013-04-22 06:02:00,
2013-04-22 00:11:00,45.0,29.0,-100.00,West,279,7.0,8.0,53,-99.99,,,-99.99,,2013-04-22 06:11:00,
2013-04-22 00:21:00,45.0,30.0,-100.00,ENE,73,5.0,7.0,54,-99.99,,,-99.99,,2013-04-22 06:21:00,
2013-04-22 00:32:00,45.0,30.0,-100.00,ENE,73,5.0,7.0,54,-99.99,,,-99.99,,2013-04-22 06:32:00,
2013-04-22 00:41:00,43.0,31.0,-100.00,SE,138,5.0,7.0,61,-99.99,,,-99.99,,2013-04-22 06:41:00,
2013-04-22 00:51:00,43.0,31.0,-100.00,SE,135,0.0,4.0,61,-99.99,,,-99.99,,2013-04-22 06:51:00,
2013-04-22 01:01:00,43.0,31.0,-100.00,SE,135,0.0,4.0,61,-99.99,,,-99.99,,2013-04-22 07:01:00,
2013-04-22 01:11:00,43.0,30.0,-100.00,NNE,21,5.0,9.0,60,-99.99,,,-99.99,,2013-04-22 07:11:00,
2013-04-22 01:21:00,43.0,31.0,-100.00,NNE,12,4.0,10.0,62,-99.99,,,-99.99,,2013-04-22 07:21:00,
2013-04-22 01:32:00,43.0,31.0,-100.00,NNE,12,4.0,10.0,62,-99.99,,,-99.99,,2013-04-22 07:32:00,
2013-04-22 01:42:00,43.0,31.0,-100.00,SSW,205,4.0,5.0,60,-99.99,,,-99.99,,2013-04-22 07:42:00,
2013-04-22 01:52:00,43.0,30.0,-100.00,North,0,0.0,3.0,60,-99.99,,,-99.99,,2013-04-22 07:52:00,
2013-04-22 02:01:00,43.0,30.0,-100.00,North,0,0.0,3.0,60,-99.99,,,-99.99,,2013-04-22 08:01:00,
2013-04-22 02:11:00,42.0,31.0,-100.00,SSW,197,1.0,2.0,63,-99.99,,,-99.99,,2013-04-22 08:11:00,
2013-04-22 02:21:00,42.0,31.0,-100.00,ESE,107,3.0,4.0,65,-99.99,,,-99.99,,2013-04-22 08:21:00,
2013-04-22 02:32:00,42.0,31.0,-100.00,ESE,107,3.0,4.0,65,-99.99,,,-99.99,,2013-04-22 08:32:00,
2013-04-22 02:41:00,39.0,30.0,-100.00,ESE,116,3.0,3.0,70,-99.99,,,-99.99,,2013-04-22 08:41:00,
2013-04-22 02:52:00,40.0,31.0,-100.00,SSE,154,2.0,3.0,69,-99.99,,,-99.99,,2013-04-22 08:52:00,
2013-04-22 03:01:00,40.0,31.0,-100.00,SSE,154,2.0,3.0,69,-99.99,,,-99.99,,2013-04-22 09:01:00,
2013-04-22 03:11:00,38.0,30.0,-100.00,East,83,4.0,4.0,72,-99.99,,,-99.99,,2013-04-22 09:11:00,
2013-04-22 03:21:00,37.0,29.0,-100.00,ENE,73,1.0,4.0,73,-99.99,,,-99.99,,2013-04-22 09:21:00,
2013-04-22 03:33:00,37.0,29.0,-100.00,ENE,73,1.0,4.0,73,-99.99,,,-99.99,,2013-04-22 09:33:00,
2013-04-22 03:42:00,36.0,29.0,-100.00,East,96,1.0,2.0,74,-99.99,,,-99.99,,2013-04-22 09:42:00,
2013-04-22 03:52:00,36.0,29.0,-100.00,NNE,32,0.0,3.0,74,-99.99,,,-99.99,,2013-04-22 09:52:00,
2013-04-22 04:03:00,36.0,29.0,-100.00,NNE,32,0.0,3.0,74,-99.99,,,-99.99,,2013-04-22 10:03:00,
2013-04-22 04:12:00,34.0,27.0,-100.00,NNE,24,2.0,4.0,74,-99.99,,,-99.99,,2013-04-22 10:12:00,
2013-04-22 04:22:00,34.0,27.0,-100.00,ESE,112,3.0,5.0,76,-99.99,,,-99.99,,2013-04-22 10:22:00,
2013-04-22 04:32:00,33.0,27.0,-100.00,ESE,114,1.0,3.0,78,-99.99,,,-99.99,,2013-04-22 10:32:00,
2013-04-22 04:42:00,33.0,27.0,-100.00,ESE,114,1.0,3.0,78,-99.99,,,-99.99,,2013-04-22 10:42:00,
2013-04-22 04:52:00,34.0,27.0,-100.00,SE,131,0.0,4.0,77,-99.99,,,-99.99,,2013-04-22 10:52:00,
2013-04-22 05:02:00,34.0,27.0,-100.00,SE,131,0.0,4.0,77,-99.99,,,-99.99,,2013-04-22 11:02:00,
2013-04-22 05:12:00,34.0,27.0,-100.00,ESE,120,0.0,2.0,78,-99.99,,,-99.99,,2013-04-22 11:12:00,
2013-04-22 05:22:00,34.0,28.0,-100.00,ESE,122,0.0,1.0,78,-99.99,,,-99.99,,2013-04-22 11:22:00,
2013-04-22 05:32:00,34.0,28.0,-100.00,ESE,122,0.0,1.0,78,-99.99,,,-99.99,,2013-04-22 11:32:00,
2013-04-22 05:42:00,39.0,29.0,-100.00,West,267,5.0,7.0,67,-99.99,,,-99.99,,2013-04-22 11:42:00,
2013-04-22 05:52:00,40.0,29.0,-100.00,WNW,286,6.0,9.0,64,-99.99,,,-99.99,,2013-04-22 11:52:00,
2013-04-22 06:01:00,40.0,29.0,-100.00,WNW,286,6.0,9.0,64,-99.99,,,-99.99,,2013-04-22 12:01:00,
2013-04-22 06:12:00,40.0,28.0,-100.00,West,260,4.0,8.0,62,-99.99,,,-99.99,,2013-04-22 12:12:00,
2013-04-22 06:21:00,41.0,27.0,-100.00,West,274,5.0,11.0,56,-99.99,,,-99.99,,2013-04-22 12:21:00,
2013-04-22 06:31:00,41.0,27.0,-100.00,West,274,5.0,11.0,56,-99.99,,,-99.99,,2013-04-22 12:31:00,
2013-04-22 06:42:00,41.0,27.0,-100.00,West,274,5.0,11.0,56,-99.99,,,-99.99,,2013-04-22 12:42:00,
2013-04-22 06:52:00,43.0,25.0,-100.00,West,263,11.0,13.0,50,-99.99,,,-99.99,,2013-04-22 12:52:00,
2013-04-22 07:01:00,43.0,25.0,-100.00,West,263,11.0,13.0,50,-99.99,,,-99.99,,2013-04-22 13:01:00,
2013-04-22 07:11:00,42.0,26.0,-100.00,WSW,254,11.0,16.0,52,-99.99,,,-99.99,,2013-04-22 13:11:00,
2013-04-22 07:22:00,42.0,27.0,-100.00,West,267,10.0,15.0,54,-99.99,,,-99.99,,2013-04-22 13:22:00,
2013-04-22 07:31:00,42.0,27.0,-100.00,West,267,10.0,15.0,54,-99.99,,,-99.99,,2013-04-22 13:31:00,
2013-04-22 07:41:00,42.0,26.0,-100.00,WSW,253,11.0,15.0,53,-99.99,,,-99.99,,2013-04-22 13:41:00,
2013-04-22 07:52:00,42.0,26.0,-100.00,WSW,243,9.0,17.0,52,-99.99,,,-99.99,,2013-04-22 13:52:00,
2013-04-22 08:02:00,42.0,26.0,-100.00,WSW,243,9.0,17.0,52,-99.99,,,-99.99,,2013-04-22 14:02:00,
2013-04-22 08:11:00,42.0,26.0,-100.00,West,259,6.0,13.0,53,-99.99,,,-99.99,,2013-04-22 14:11:00,
2013-04-22 08:21:00,41.0,26.0,-100.00,West,259,11.0,13.0,53,-99.99,,,-99.99,,2013-04-22 14:21:00,
2013-04-22 08:33:00,41.0,26.0,-100.00,West,259,11.0,13.0,53,-99.99,,,-99.99,,2013-04-22 14:33:00,
2013-04-22 08:42:00,42.0,25.0,-100.00,West,267,14.0,20.0,51,-99.99,,,-99.99,,2013-04-22 14:42:00,
2013-04-22 08:51:00,41.0,24.0,-100.00,WSW,256,15.0,19.0,50,-99.99,,,-99.99,,2013-04-22 14:51:00,
2013-04-22 09:01:00,41.0,24.0,-100.00,WSW,256,15.0,19.0,50,-99.99,,,-99.99,,2013-04-22 15:01:00,
2013-04-22 09:11:00,41.0,26.0,-100.00,West,277,13.0,19.0,54,-99.99,,,-99.99,,2013-04-22 15:11:00,
2013-04-22 09:22:00,40.0,25.0,-100.00,West,271,16.0,21.0,53,-99.99,,,-99.99,,2013-04-22 15:22:00,
2013-04-22 09:33:00,40.0,25.0,-100.00,West,271,16.0,21.0,53,-99.99,,,-99.99,,2013-04-22 15:33:00,
2013-04-22 09:42:00,40.0,25.0,-100.00,West,272,16.0,23.0,55,-99.99,,,-99.99,,2013-04-22 15:42:00,
2013-04-22 09:53:00,40.0,25.0,-100.00,WSW,252,11.0,24.0,55,-99.99,,,-99.99,,2013-04-22 15:53:00,
2013-04-22 10:02:00,40.0,25.0,-100.00,WSW,252,11.0,24.0,55,-99.99,,,-99.99,,2013-04-22 16:02:00,
2013-04-22 10:12:00,38.0,27.0,-100.00,West,262,16.0,21.0,62,-99.99,,,-99.99,,2013-04-22 16:12:00,
2013-04-22 10:22:00,37.0,28.0,-100.00,WSW,249,10.0,22.0,71,-99.99,,,-99.99,,2013-04-22 16:22:00,
2013-04-22 10:33:00,37.0,28.0,-100.00,WSW,249,10.0,22.0,71,-99.99,,,-99.99,,2013-04-22 16:33:00,
2013-04-22 10:41:00,35.0,29.0,-100.00,WSW,253,12.0,14.0,77,-99.99,,,-99.99,,2013-04-22 16:41:00,
2013-04-22 10:52:00,35.0,29.0,-100.00,WSW,258,14.0,18.0,80,-99.99,,,-99.99,,2013-04-22 16:52:00,
2013-04-22 11:02:00,34.0,30.0,-100.00,WSW,246,11.0,14.0,83,-99.99,,,-99.99,,2013-04-22 17:02:00,
2013-04-22 11:12:00,36.0,30.0,-100.00,WSW,239,12.0,17.0,80,-99.99,,,-99.99,,2013-04-22 17:12:00,
2013-04-22 11:22:00,36.0,29.0,-100.00,WSW,241,15.0,20.0,75,-99.99,,,-99.99,,2013-04-22 17:22:00,
2013-04-22 11:31:00,35.0,29.0,-100.00,WSW,253,19.0,22.0,78,-99.99,,,-99.99,,2013-04-22 17:31:00,
2013-04-22 11:42:00,35.0,29.0,-100.00,WSW,253,19.0,22.0,78,-99.99,,,-99.99,,2013-04-22 17:42:00,
2013-04-22 11:51:00,35.0,29.0,-100.00,WSW,254,15.0,22.0,78,-99.99,,,-99.99,,2013-04-22 17:51:00,
2013-04-22 12:01:00,35.0,29.0,-100.00,WSW,254,15.0,22.0,78,-99.99,,,-99.99,,2013-04-22 18:01:00,
2013-04-22 12:12:00,35.0,28.0,-100.00,WSW,244,17.0,23.0,75,-99.99,,,-99.99,,2013-04-22 18:12:00,
2013-04-22 12:21:00,35.0,28.0,-100.00,WSW,244,17.0,23.0,75,-99.99,,,-99.99,,2013-04-22 18:21:00,
2013-04-22 12:32:00,36.0,27.0,-100.00,WSW,253,15.0,23.0,67,-99.99,,,-99.99,,2013-04-22 18:32:00,
2013-04-22 12:42:00,36.0,27.0,-100.00,WSW,248,18.0,22.0,69,-99.99,,,-99.99,,2013-04-22 18:42:00,
2013-04-22 12:52:00,36.0,27.0,-100.00,WSW,240,13.0,20.0,68,-99.99,,,-99.99,,2013-04-22 18:52:00,
2013-04-22 13:01:00,36.0,27.0,-100.00,WSW,240,13.0,20.0,68,-99.99,,,-99.99,,2013-04-22 19:01:00,
2013-04-22 13:11:00,37.0,28.0,-100.00,WSW,245,7.0,14.0,68,-99.99,,,-99.99,,2013-04-22 19:11:00,
2013-04-22 13:21:00,38.0,26.0,-100.00,WSW,244,9.0,15.0,61,-99.99,,,-99.99,,2013-04-22 19:21:00,
2013-04-22 13:32:00,38.0,26.0,-100.00,WSW,244,9.0,15.0,61,-99.99,,,-99.99,,2013-04-22 19:32:00,
2013-04-22 13:42:00,37.0,23.0,-100.00,WSW,257,16.0,20.0,58,-99.99,,,-99.99,,2013-04-22 19:42:00,
2013-04-22 13:52:00,38.0,23.0,-100.00,SW,235,12.0,20.0,55,-99.99,,,-99.99,,2013-04-22 19:52:00,
2013-04-22 14:02:00,38.0,23.0,-100.00,SW,235,12.0,20.0,55,-99.99,,,-99.99,,2013-04-22 20:02:00,
2013-04-22 14:11:00,37.0,23.0,-100.00,SW,228,10.0,17.0,57,-99.99,,,-99.99,,2013-04-22 20:11:00,
2013-04-22 14:22:00,37.0,23.0,-100.00,WSW,245,12.0,19.0,57,-99.99,,,-99.99,,2013-04-22 20:22:00,
2013-04-22 14:32:00,37.0,23.0,-100.00,WSW,245,12.0,19.0,57,-99.99,,,-99.99,,2013-04-22 20:32:00,
2013-04-22 14:41:00,38.0,23.0,-100.00,SSW,213,9.0,15.0,54,-99.99,,,-99.99,,2013-04-22 20:41:00,
2013-04-22 14:51:00,39.0,22.0,-100.00,SW,236,13.0,18.0,49,-99.99,,,-99.99,,2013-04-22 20:51:00,
2013-04-22 15:01:00,39.0,22.0,-100.00,SW,236,13.0,18.0,49,-99.99,,,-99.99,,2013-04-22 21:01:00,
2013-04-22 15:11:00,39.0,21.0,-100.00,SW,216,11.0,22.0,47,-99.99,,,-99.99,,2013-04-22 21:11:00,
2013-04-22 15:21:00,40.0,20.0,-100.00,WSW,251,11.0,19.0,43,-99.99,,,-99.99,,2013-04-22 21:21:00,
2013-04-22 15:32:00,40.0,20.0,-100.00,WSW,251,11.0,19.0,43,-99.99,,,-99.99,,2013-04-22 21:32:00,
2013-04-22 15:42:00,41.0,18.0,-100.00,West,264,14.0,25.0,39,-99.99,,,-99.99,,2013-04-22 21:42:00,
2013-04-22 15:52:00,41.0,18.0,-100.00,SW,231,15.0,23.0,38,-99.99,,,-99.99,,2013-04-22 21:52:00,
2013-04-22 16:02:00,43.0,18.0,-100.00,SW,218,10.0,21.0,36,-99.99,,,-99.99,,2013-04-22 22:02:00,
2013-04-22 16:12:00,42.0,16.0,-100.00,WSW,251,15.0,21.0,34,-99.99,,,-99.99,,2013-04-22 22:12:00,
2013-04-22 16:22:00,40.0,16.0,-100.00,WSW,251,10.0,26.0,37,-99.99,,,-99.99,,2013-04-22 22:22:00,
2013-04-22 16:32:00,40.0,16.0,-100.00,WSW,251,10.0,26.0,37,-99.99,,,-99.99,,2013-04-22 22:32:00,
2013-04-22 16:42:00,42.0,14.0,-100.00,West,277,17.0,21.0,32,-99.99,,,-99.99,,2013-04-22 22:42:00,
2013-04-22 16:52:00,42.0,14.0,-100.00,West,276,21.0,26.0,32,-99.99,,,-99.99,,2013-04-22 22:52:00,
2013-04-22 17:02:00,42.0,14.0,-100.00,West,276,21.0,26.0,32,-99.99,,,-99.99,,2013-04-22 23:02:00,
2013-04-22 17:11:00,41.0,13.0,-100.00,West,279,21.0,25.0,30,-99.99,,,-99.99,,2013-04-22 23:11:00,
2013-04-22 17:21:00,42.0,13.0,-100.00,WSW,254,14.0,26.0,30,-99.99,,,-99.99,,2013-04-22 23:21:00,
2013-04-22 17:32:00,42.0,13.0,-100.00,WSW,254,14.0,26.0,30,-99.99,,,-99.99,,2013-04-22 23:32:00,
2013-04-22 17:42:00,42.0,12.0,-100.00,West,280,19.0,23.0,29,-99.99,,,-99.99,,2013-04-22 23:42:00,
2013-04-22 17:52:00,42.0,12.0,-100.00,West,273,14.0,24.0,29,-99.99,,,-99.99,,2013-04-22 23:52:00,
2013-04-22 18:01:00,42.0,12.0,-100.00,West,273,14.0,24.0,29,-99.99,,,-99.99,,2013-04-23 00:01:00,
2013-04-22 18:12:00,42.0,12.0,-100.00,West,273,14.0,24.0,29,-99.99,,,-99.99,,2013-04-23 00:12:00,
2013-04-22 18:21:00,42.0,10.0,-100.00,West,267,16.0,20.0,27,-99.99,,,-99.99,,2013-04-23 00:21:00,
2013-04-22 18:31:00,42.0,10.0,-100.00,West,267,16.0,20.0,27,-99.99,,,-99.99,,2013-04-23 00:31:00,
2013-04-22 18:42:00,42.0,10.0,-100.00,West,267,16.0,20.0,27,-99.99,,,-99.99,,2013-04-23 00:42:00,
2013-04-22 18:51:00,41.0,10.0,-100.00,WSW,257,16.0,25.0,27,-99.99,,,-99.99,,2013-04-23 00:51:00,
2013-04-22 19:01:00,41.0,10.0,-100.00,WSW,257,16.0,25.0,27,-99.99,,,-99.99,,2013-04-23 01:01:00,
2013-04-22 19:11:00,40.0,10.0,-100.00,West,262,18.0,23.0,28,-99.99,,,-99.99,,2013-04-23 01:11:00,
2013-04-22 19:21:00,40.0,11.0,-100.00,WSW,249,14.0,20.0,29,-99.99,,,-99.99,,2013-04-23 01:21:00,
2013-04-22 19:32:00,40.0,11.0,-100.00,WSW,249,14.0,20.0,29,-99.99,,,-99.99,,2013-04-23 01:32:00,
2013-04-22 19:42:00,39.0,14.0,-100.00,West,269,14.0,21.0,34,-99.99,,,-99.99,,2013-04-23 01:42:00,
2013-04-22 19:52:00,39.0,13.0,-100.00,West,276,15.0,21.0,34,-99.99,,,-99.99,,2013-04-23 01:52:00,
2013-04-22 20:01:00,39.0,13.0,-100.00,West,276,15.0,21.0,34,-99.99,,,-99.99,,2013-04-23 02:01:00,
2013-04-22 20:12:00,38.0,14.0,-100.00,West,266,14.0,17.0,36,-99.99,,,-99.99,,2013-04-23 02:12:00,
2013-04-22 20:21:00,38.0,14.0,-100.00,West,266,14.0,17.0,36,-99.99,,,-99.99,,2013-04-23 02:21:00,
2013-04-22 20:32:00,38.0,14.0,-100.00,West,269,15.0,20.0,37,-99.99,,,-99.99,,2013-04-23 02:32:00,
2013-04-22 20:42:00,37.0,14.0,-100.00,WSW,254,12.0,22.0,37,-99.99,,,-99.99,,2013-04-23 02:42:00,
2013-04-22 20:52:00,36.0,14.0,-100.00,WSW,256,13.0,17.0,38,-99.99,,,-99.99,,2013-04-23 02:52:00,
2013-04-22 21:01:00,36.0,14.0,-100.00,WSW,256,13.0,17.0,38,-99.99,,,-99.99,,2013-04-23 03:01:00,
2013-04-22 21:11:00,36.0,15.0,-100.00,WSW,253,11.0,15.0,41,-99.99,,,-99.99,,2013-04-23 03:11:00,
2013-04-22 21:21:00,36.0,15.0,-100.00,WSW,258,10.0,14.0,42,-99.99,,,-99.99,,2013-04-23 03:21:00,
2013-04-22 21:33:00,36.0,15.0,-100.00,WSW,258,10.0,14.0,42,-99.99,,,-99.99,,2013-04-23 03:33:00,
2013-04-22 21:43:00,34.0,16.0,-100.00,WNW,289,9.0,13.0,46,-99.99,,,-99.99,,2013-04-23 03:43:00,
2013-04-22 21:52:00,33.0,16.0,-100.00,WNW,298,6.0,7.0,48,-99.99,,,-99.99,,2013-04-23 03:52:00,
2013-04-22 22:03:00,33.0,16.0,-100.00,WNW,298,6.0,7.0,48,-99.99,,,-99.99,,2013-04-23 04:03:00,
2013-04-22 22:12:00,33.0,16.0,-100.00,WNW,282,6.0,7.0,50,-99.99,,,-99.99,,2013-04-23 04:12:00,
2013-04-22 22:23:00,32.0,17.0,-100.00,WNW,302,5.0,6.0,53,-99.99,,,-99.99,,2013-04-23 04:23:00,
2013-04-22 22:33:00,32.0,17.0,-100.00,WNW,302,5.0,6.0,53,-99.99,,,-99.99,,2013-04-23 04:33:00,
2013-04-22 22:43:00,32.0,18.0,-100.00,WNW,286,6.0,10.0,56,-99.99,,,-99.99,,2013-04-23 04:43:00,
2013-04-22 22:52:00,31.0,18.0,-100.00,NW,309,5.0,10.0,58,-99.99,,,-99.99,,2013-04-23 04:52:00,
2013-04-22 23:02:00,31.0,18.0,-100.00,NW,309,5.0,10.0,58,-99.99,,,-99.99,,2013-04-23 05:02:00,
2013-04-22 23:12:00,31.0,19.0,-100.00,WNW,297,5.0,6.0,61,-99.99,,,-99.99,,2013-04-23 05:12:00,
2013-04-22 23:22:00,30.0,19.0,-100.00,WNW,286,3.0,5.0,63,-99.99,,,-99.99,,2013-04-23 05:22:00,
2013-04-22 23:32:00,30.0,19.0,-100.00,WNW,286,3.0,5.0,63,-99.99,,,-99.99,,2013-04-23 05:32:00,
2013-04-22 23:42:00,30.0,20.0,-100.00,West,276,4.0,4.0,65,-99.99,,,-99.99,,2013-04-23 05:42:00,
2013-04-22 23:52:00,30.0,20.0,-100.00,West,276,5.0,5.0,66,-99.99,,,-99.99,,2013-04-23 05:52:00,